START_TIME,STEP,MOV.,H8,t_acc.,H43,t_acc.,M25,t_acc.,H9,t_acc.
1979-07-12 00:00:53.910 ,1,0,3.,12.0,0.,12.0,0.,12.0,0.,12.0
1979-07-12 00:01:05.910 ,1,0,1.,12.0,0.,12.0,0.,12.0,0.,12.0
1979-07-12 00:01:17.910 ,1,0,3.,12.0,0.,12.0,0.,12.0,0.,12.0
1979-07-12 00:01:29.910 ,1,0,1.,12.0,0.,12.0,0.,12.0,0.,12.0
1979-07-12 00:01:41.910 ,2,0,0.,12.0,0.,12.0,0.,12.0,0.,12.0
1979-07-12 00:01:53.910 ,2,0,0.,12.0,0.,12.0,0.,12.0,0.,12.0
1979-07-12 00:02:05.910 ,2,0,1.,12.0,0.,12.0,0.,12.0,0.,12.0
1979-07-12 00:02:17.910 ,2,0,3.,12.0,0.,12.0,0.,12.0,0.,12.0
1979-07-12 00:02:29.910 ,3,0,1.,12.0,0.,12.0,0.,12.0,0.,12.0
1979-07-12 00:02:41.910 ,3,0,2.,12.0,0.,12.0,0.,12.0,0.,12.0
1979-07-12 00:02:53.910 ,3,0,2.,12.0,0.,12.0,0.,12.0,0.,12.0
1979-07-12 00:03:05.910 ,3,0,0.,12.0,0.,12.0,0.,12.0,0.,12.0
1979-07-12 00:03:17.910 ,4,0,2.,12.0,0.,12.0,0.,12.0,0.,12.0
1979-07-12 00:03:29.910 ,4,0,1.,12.0,0.,12.0,0.,12.0,0.,12.0
1979-07-12 00:03:41.910 ,4,0,2.,12.0,0.,12.0,0.,12.0,0.,12.0
1979-07-12 00:03:53.910 ,4,0,2.,12.0,0.,12.0,0.,12.0,0.,12.0
1979-07-12 00:04:05.910 ,0,0,0.,12.0,0.,12.0,0.,12.0,0.,12.0
1979-07-12 00:04:17.910 ,0,0,0.,12.0,0.,12.0,0.,12.0,0.,12.0
1979-07-12 00:04:29.910 ,0,0,3.,12.0,0.,12.0,0.,12.0,0.,12.0
1979-07-12 00:04:41.910 ,0,0,,0,,0,,0,,0
1979-07-12 00:04:54.510 ,0,0,0.,12.0,0.,12.0,0.,12.0,0.,12.0
1979-07-12 00:05:06.510 ,0,0,,0,,0,,0,,0
1979-07-12 00:05:17.910 ,0,0,,0,,0,,0,,0
1979-07-12 00:05:29.910 ,0,0,,0,,0,,0,,0
1979-07-12 00:06:30.510 ,0,0,0.,12.0,0.,12.0,0.,12.0,0.,12.0
1979-07-12 00:06:42.510 ,0,0,,0,,0,,0,,0
1979-07-12 00:06:53.910 ,0,0,0.,12.0,0.,12.0,0.,12.0,0.,12.0
1979-07-12 00:07:05.910 ,0,0,0.,12.0,0.,12.0,0.,12.0,0.,12.0
1979-07-12 00:07:18.510 ,6,1,0.,12.0,0.,12.0,0.,12.0,0.,12.0
1979-07-12 00:07:30.510 ,6,1,,0,,0,,0,,0
1979-07-12 00:07:41.910 ,0,0,,0,,0,,0,,0
1979-07-12 00:07:53.910 ,0,0,,0,,0,,0,,0
1979-07-12 00:08:05.910 ,0,0,,0,,0,,0,,0
1979-07-12 00:08:17.910 ,0,0,,0,,0,,0,,0
1979-07-12 00:08:29.910 ,0,0,2.,12.0,0.,12.0,0.,12.0,0.,12.0
1979-07-12 00:08:41.910 ,0,0,2.,12.0,0.,12.0,0.,12.0,0.,12.0
1979-07-12 00:09:41.910 ,0,0,3.,12.0,0.,12.0,0.,12.0,0.,12.0
1979-07-12 00:09:53.910 ,0,0,3.,12.0,0.,12.0,0.,12.0,0.,12.0
1979-07-12 00:10:05.910 ,0,0,,0,,0,,0,,0
1979-07-12 00:10:17.910 ,0,0,3.,12.0,0.,12.0,0.,12.0,0.,12.0
1979-07-12 00:10:32.310 ,0,0,5.,12.0,0.,12.0,0.,12.0,0.,12.0
1979-07-12 00:10:44.310 ,0,0,,0,,0,,0,,0
1979-07-12 00:10:53.910 ,0,0,,0,,0,,0,,0
1979-07-12 00:11:05.910 ,0,0,2.,12.0,0.,12.0,0.,12.0,0.,12.0
1979-07-12 00:12:06.510 ,0,0,2.,12.0,0.,12.0,0.,12.0,0.,12.0
1979-07-12 00:12:18.510 ,0,0,1.,12.0,0.,12.0,0.,12.0,0.,12.0
1979-07-12 00:12:29.910 ,0,0,,0,,0,,0,,0
1979-07-12 00:12:41.910 ,0,0,3.,12.0,0.,12.0,0.,12.0,0.,12.0
1979-07-12 00:12:53.910 ,0,0,,0,,0,,0,,0
1979-07-12 00:13:05.910 ,0,0,,0,,0,,0,,0
1979-07-12 00:13:17.910 ,0,0,,0,,0,,0,,0
1979-07-12 00:13:29.910 ,0,0,4.,12.0,0.,12.0,0.,12.0,0.,12.0
1979-07-12 00:13:41.910 ,0,0,,0,,0,,0,,0
1979-07-12 00:13:53.910 ,0,0,2.,12.0,0.,12.0,0.,12.0,0.,12.0
1979-07-12 00:14:05.910 ,0,0,,0,,0,,0,,0
1979-07-12 00:14:17.910 ,0,0,,0,,0,,0,,0
1979-07-12 00:14:29.910 ,0,0,,0,,0,,0,,0
1979-07-12 00:14:41.910 ,0,0,,0,,0,,0,,0
1979-07-12 00:14:53.910 ,0,0,1.,12.0,0.,12.0,0.,12.0,0.,12.0
1979-07-12 00:15:05.910 ,0,0,3.,12.0,0.,12.0,0.,12.0,0.,12.0
1979-07-12 00:15:18.510 ,0,0,0.,12.0,0.,12.0,0.,12.0,0.,12.0
1979-07-12 00:15:30.510 ,0,0,7.,12.0,0.,12.0,0.,12.0,0.,12.0
1979-07-12 00:15:41.910 ,0,0,0.,12.0,0.,12.0,0.,12.0,0.,12.0
1979-07-12 00:15:53.910 ,0,0,2.,12.0,0.,12.0,0.,12.0,0.,12.0
1979-07-12 00:16:05.910 ,0,0,,0,,0,,0,,0
1979-07-12 00:16:17.910 ,0,0,,0,,0,,0,,0
1979-07-12 00:16:29.910 ,0,0,,0,,0,,0,,0
1979-07-12 00:16:41.910 ,0,0,0.,12.0,0.,12.0,0.,12.0,0.,12.0
1979-07-12 00:16:53.910 ,0,0,,0,,0,,0,,0
1979-07-12 00:17:05.910 ,0,0,,0,,0,,0,,0
1979-07-12 00:17:17.910 ,0,0,,0,,0,,0,,0
1979-07-12 00:17:29.910 ,0,0,,0,,0,,0,,0
1979-07-12 00:17:41.910 ,0,0,,0,,0,,0,,0
1979-07-12 00:17:53.910 ,0,0,0.,12.0,0.,12.0,0.,12.0,0.,12.0
1979-07-12 00:18:05.910 ,0,0,,0,,0,,0,,0
1979-07-12 00:18:17.910 ,0,0,,0,,0,,0,,0
1979-07-12 00:18:29.910 ,0,0,,0,,0,,0,,0
1979-07-12 00:18:41.910 ,0,0,,0,,0,,0,,0
1979-07-12 00:18:53.910 ,0,0,,0,,0,,0,,0
1979-07-12 00:19:05.910 ,0,0,,0,,0,,0,,0
1979-07-12 00:19:17.910 ,0,0,,0,,0,,0,,0
1979-07-12 00:19:29.910 ,0,0,,0,,0,,0,,0
1979-07-12 00:19:41.910 ,0,0,,0,,0,,0,,0
1979-07-12 00:19:53.910 ,0,0,,0,,0,,0,,0
1979-07-12 00:20:06.510 ,0,0,,0,,0,,0,,0
1979-07-12 00:20:18.510 ,0,0,,0,,0,,0,,0
1979-07-12 00:20:29.910 ,0,0,,0,,0,,0,,0
1979-07-12 00:20:41.910 ,0,0,0.,12.0,0.,12.0,0.,12.0,0.,12.0
1979-07-12 00:20:53.910 ,0,0,0.,12.0,0.,12.0,0.,12.0,0.,12.0
1979-07-12 00:21:05.910 ,0,0,,0,,0,,0,,0
1979-07-12 00:21:17.910 ,0,0,,0,,0,,0,,0
1979-07-12 00:21:29.910 ,0,0,,0,,0,,0,,0
1979-07-12 00:21:42.510 ,0,0,,0,,0,,0,,0
1979-07-12 00:21:54.510 ,0,0,,0,,0,,0,,0
1979-07-12 00:22:05.910 ,7,1,,0,,0,,0,,0
1979-07-12 00:22:17.910 ,7,1,,0,,0,,0,,0
1979-07-12 00:22:29.910 ,0,0,,0,,0,,0,,0
1979-07-12 00:22:41.910 ,0,0,,0,,0,,0,,0
1979-07-12 00:22:53.910 ,0,1,,0,,0,,0,,0
1979-07-12 00:23:05.910 ,0,1,1.,12.0,0.,12.0,0.,12.0,0.,12.0
1979-07-12 00:23:17.910 ,4,1,1.,12.0,0.,12.0,0.,12.0,0.,12.0
1979-07-12 00:23:29.910 ,4,1,5.,12.0,0.,12.0,0.,12.0,0.,12.0
1979-07-12 00:23:41.910 ,7,1,0.,12.0,0.,12.0,0.,12.0,0.,12.0
1979-07-12 00:23:53.910 ,7,1,1.,12.0,0.,12.0,0.,12.0,0.,12.0
1979-07-12 00:24:05.910 ,3,1,2.,12.0,0.,12.0,0.,12.0,0.,12.0
1979-07-12 00:24:17.910 ,3,1,2.,12.0,0.,12.0,0.,12.0,0.,12.0
1979-07-12 00:24:29.910 ,0,1,2.,12.0,0.,12.0,0.,12.0,0.,12.0
1979-07-12 00:24:41.910 ,0,1,2.,12.0,0.,12.0,0.,12.0,0.,12.0
1979-07-12 00:24:53.910 ,4,1,1.,12.0,0.,12.0,0.,12.0,0.,12.0
1979-07-12 00:25:05.910 ,4,1,3.,12.0,0.,12.0,0.,12.0,0.,12.0
1979-07-12 00:25:17.910 ,7,1,2.,12.0,0.,12.0,0.,12.0,0.,12.0
1979-07-12 00:25:29.910 ,7,1,0.,12.0,0.,12.0,0.,12.0,0.,12.0
1979-07-12 00:25:41.910 ,3,1,0.,12.0,0.,12.0,0.,12.0,0.,12.0
1979-07-12 00:25:53.910 ,3,1,2.,12.0,0.,12.0,0.,12.0,0.,12.0
1979-07-12 00:26:05.910 ,0,1,2.,12.0,0.,12.0,0.,12.0,0.,12.0
1979-07-12 00:26:17.910 ,0,1,4.,12.0,0.,12.0,0.,12.0,0.,12.0
1979-07-12 00:26:29.910 ,4,1,2.,12.0,0.,12.0,0.,12.0,0.,12.0
1979-07-12 00:26:41.910 ,4,1,1.,12.0,0.,12.0,0.,12.0,0.,12.0
1979-07-12 00:26:53.910 ,7,1,2.,12.0,0.,12.0,0.,12.0,0.,12.0
1979-07-12 00:27:05.910 ,7,1,1.,12.0,0.,12.0,0.,12.0,0.,12.0
1979-07-12 00:27:17.910 ,3,1,2.,12.0,0.,12.0,0.,12.0,0.,12.0
1979-07-12 00:27:29.910 ,3,1,1.,12.0,0.,12.0,0.,12.0,0.,12.0
1979-07-12 00:27:41.910 ,0,1,3.,12.0,0.,12.0,0.,12.0,0.,12.0
1979-07-12 00:27:53.910 ,0,1,1.,12.0,0.,12.0,0.,12.0,0.,12.0
1979-07-12 00:28:05.910 ,4,1,4.,12.0,0.,12.0,0.,12.0,0.,12.0
1979-07-12 00:28:17.910 ,4,1,3.,12.0,0.,12.0,0.,12.0,0.,12.0
1979-07-12 00:28:29.910 ,7,1,6.,12.0,0.,12.0,0.,12.0,0.,12.0
1979-07-12 00:28:41.910 ,7,1,4.,12.0,0.,12.0,0.,12.0,0.,12.0
1979-07-12 00:28:53.910 ,3,1,0.,12.0,0.,12.0,0.,12.0,0.,12.0
1979-07-12 00:29:05.910 ,3,1,2.,12.0,0.,12.0,0.,12.0,0.,12.0
1979-07-12 00:29:17.910 ,0,1,5.,12.0,0.,12.0,0.,12.0,0.,12.0
1979-07-12 00:29:29.910 ,0,1,0.,12.0,0.,12.0,0.,12.0,0.,12.0
1979-07-12 00:29:41.910 ,0,0,3.,12.0,0.,12.0,0.,12.0,0.,12.0
1979-07-12 00:29:53.910 ,0,0,2.,12.0,0.,12.0,0.,12.0,0.,12.0
1979-07-12 00:30:05.910 ,0,0,1.,12.0,0.,12.0,0.,12.0,0.,12.0
1979-07-12 00:30:17.910 ,0,0,0.,12.0,0.,12.0,0.,12.0,0.,12.0
1979-07-12 00:30:29.910 ,5,0,0.,12.0,0.,12.0,0.,12.0,0.,12.0
1979-07-12 00:30:41.910 ,5,0,3.,12.0,0.,12.0,0.,12.0,0.,12.0
1979-07-12 00:30:53.910 ,5,0,4.,12.0,0.,12.0,0.,12.0,0.,12.0
1979-07-12 00:31:05.910 ,5,0,2.,12.0,0.,12.0,0.,12.0,0.,12.0
1979-07-12 00:31:17.910 ,4,0,5.,12.0,0.,12.0,0.,12.0,0.,12.0
1979-07-12 00:31:29.910 ,4,0,2.,12.0,0.,12.0,0.,12.0,0.,12.0
1979-07-12 00:31:41.910 ,4,0,0.,12.0,0.,12.0,0.,12.0,0.,12.0
1979-07-12 00:31:53.910 ,4,0,2.,12.0,0.,12.0,0.,12.0,0.,12.0
1979-07-12 00:32:05.910 ,3,0,2.,12.0,0.,12.0,0.,12.0,0.,12.0
1979-07-12 00:32:17.910 ,3,0,3.,12.0,0.,12.0,0.,12.0,0.,12.0
1979-07-12 00:32:29.910 ,3,0,2.,12.0,0.,12.0,0.,12.0,0.,12.0
1979-07-12 00:32:41.910 ,3,0,3.,12.0,0.,12.0,0.,12.0,0.,12.0
1979-07-12 00:32:53.910 ,2,0,3.,12.0,0.,12.0,0.,12.0,0.,12.0
1979-07-12 00:33:05.910 ,2,0,3.,12.0,0.,12.0,0.,12.0,0.,12.0
1979-07-12 00:33:17.910 ,2,0,5.,12.0,0.,12.0,0.,12.0,0.,12.0
1979-07-12 00:33:29.910 ,2,0,3.,12.0,0.,12.0,0.,12.0,0.,12.0
1979-07-12 00:33:41.910 ,1,0,4.,12.0,0.,12.0,0.,12.0,0.,12.0
1979-07-12 00:33:53.910 ,1,0,1.,12.0,0.,12.0,0.,12.0,0.,12.0
1979-07-12 00:34:05.910 ,1,0,2.,12.0,0.,12.0,0.,12.0,0.,12.0
1979-07-12 00:34:17.910 ,1,0,1.,12.0,0.,12.0,0.,12.0,0.,12.0
1979-07-12 00:34:29.910 ,0,0,2.,12.0,0.,12.0,0.,12.0,0.,12.0
1979-07-12 00:34:41.910 ,0,0,3.,12.0,0.,12.0,0.,12.0,0.,12.0
1979-07-12 00:34:53.910 ,0,0,1.,12.0,0.,12.0,0.,12.0,0.,12.0
1979-07-12 00:35:05.910 ,0,0,1.,12.0,0.,12.0,0.,12.0,0.,12.0
1979-07-12 00:35:17.910 ,0,0,2.,12.0,0.,12.0,0.,12.0,0.,12.0
1979-07-12 00:35:29.910 ,0,0,2.,12.0,0.,12.0,0.,12.0,0.,12.0
1979-07-12 00:35:41.910 ,0,0,1.,12.0,0.,12.0,0.,12.0,0.,12.0
1979-07-12 00:35:53.910 ,0,0,1.,12.0,0.,12.0,0.,12.0,0.,12.0
1979-07-12 00:36:05.910 ,1,0,1.,12.0,0.,12.0,0.,12.0,0.,12.0
1979-07-12 00:36:17.910 ,1,0,1.,12.0,0.,12.0,0.,12.0,0.,12.0
1979-07-12 00:36:29.910 ,1,0,1.,12.0,0.,12.0,0.,12.0,0.,12.0
1979-07-12 00:36:41.910 ,1,0,1.,12.0,0.,12.0,0.,12.0,0.,12.0
1979-07-12 00:36:53.910 ,2,0,1.,12.0,0.,12.0,0.,12.0,0.,12.0
1979-07-12 00:37:05.910 ,2,0,5.,12.0,0.,12.0,0.,12.0,0.,12.0
1979-07-12 00:37:17.910 ,2,0,1.,12.0,0.,12.0,0.,12.0,0.,12.0
1979-07-12 00:37:29.910 ,2,0,4.,12.0,0.,12.0,0.,12.0,0.,12.0
1979-07-12 00:37:41.910 ,3,0,3.,12.0,0.,12.0,0.,12.0,0.,12.0
1979-07-12 00:37:53.910 ,3,0,4.,12.0,0.,12.0,0.,12.0,0.,12.0
1979-07-12 00:38:05.910 ,3,0,6.,12.0,0.,12.0,0.,12.0,0.,12.0
1979-07-12 00:38:17.910 ,3,0,6.,12.0,0.,12.0,0.,12.0,0.,12.0
1979-07-12 00:38:29.910 ,4,0,4.,12.0,0.,12.0,0.,12.0,0.,12.0
1979-07-12 00:38:41.910 ,4,0,1.,12.0,0.,12.0,0.,12.0,0.,12.0
1979-07-12 00:38:53.910 ,4,0,3.,12.0,0.,12.0,0.,12.0,0.,12.0
1979-07-12 00:39:05.910 ,4,0,4.,12.0,0.,12.0,0.,12.0,0.,12.0
1979-07-12 00:39:17.910 ,5,0,4.,12.0,0.,12.0,0.,12.0,0.,12.0
1979-07-12 00:39:29.910 ,5,0,4.,12.0,0.,12.0,0.,12.0,0.,12.0
1979-07-12 00:39:41.910 ,5,0,1.,12.0,0.,12.0,0.,12.0,0.,12.0
1979-07-12 00:39:53.910 ,5,0,5.,12.0,0.,12.0,0.,12.0,0.,12.0
1979-07-12 00:40:05.910 ,6,0,1.,12.0,0.,12.0,0.,12.0,0.,12.0
1979-07-12 00:40:17.910 ,6,0,1.,12.0,0.,12.0,0.,12.0,0.,12.0
1979-07-12 00:40:29.910 ,6,0,5.,12.0,0.,12.0,0.,12.0,0.,12.0
1979-07-12 00:40:41.910 ,6,0,3.,12.0,0.,12.0,0.,12.0,0.,12.0
1979-07-12 00:40:53.910 ,7,0,4.,12.0,0.,12.0,0.,12.0,0.,12.0
1979-07-12 00:41:05.910 ,7,0,0.,12.0,0.,12.0,0.,12.0,0.,12.0
1979-07-12 00:41:17.910 ,7,0,0.,12.0,0.,12.0,0.,12.0,0.,12.0
1979-07-12 00:41:29.910 ,7,0,0.,12.0,0.,12.0,0.,12.0,0.,12.0
1979-07-12 00:41:41.910 ,7,0,0.,12.0,0.,12.0,0.,12.0,0.,12.0
1979-07-12 00:41:53.910 ,7,0,0.,12.0,0.,12.0,0.,12.0,0.,12.0
1979-07-12 00:42:05.910 ,7,0,0.,12.0,0.,12.0,0.,12.0,0.,12.0
1979-07-12 00:42:17.910 ,7,0,0.,12.0,0.,12.0,0.,12.0,0.,12.0
1979-07-12 00:42:29.910 ,6,0,0.,12.0,0.,12.0,0.,12.0,0.,12.0
1979-07-12 00:42:41.910 ,6,0,2.,12.0,0.,12.0,0.,12.0,0.,12.0
1979-07-12 00:42:53.910 ,6,0,5.,12.0,0.,12.0,0.,12.0,0.,12.0
1979-07-12 00:43:05.910 ,6,0,4.,12.0,0.,12.0,0.,12.0,0.,12.0
1979-07-12 00:43:17.910 ,5,0,2.,12.0,0.,12.0,0.,12.0,0.,12.0
1979-07-12 00:43:29.910 ,5,0,3.,12.0,0.,12.0,0.,12.0,0.,12.0
1979-07-12 00:43:41.910 ,5,0,1.,12.0,0.,12.0,0.,12.0,0.,12.0
1979-07-12 00:43:53.910 ,5,0,2.,12.0,0.,12.0,0.,12.0,0.,12.0
1979-07-12 00:44:05.910 ,4,0,5.,12.0,0.,12.0,0.,12.0,0.,12.0
1979-07-12 00:44:17.910 ,4,0,2.,12.0,0.,12.0,0.,12.0,0.,12.0
1979-07-12 00:44:29.910 ,4,0,2.,12.0,0.,12.0,0.,12.0,0.,12.0
1979-07-12 00:44:41.910 ,4,0,1.,12.0,0.,12.0,0.,12.0,0.,12.0
1979-07-12 00:44:53.910 ,3,0,2.,12.0,0.,12.0,0.,12.0,0.,12.0
1979-07-12 00:45:05.910 ,3,0,4.,12.0,0.,12.0,0.,12.0,0.,12.0
1979-07-12 00:45:17.910 ,3,0,5.,12.0,0.,12.0,0.,12.0,0.,12.0
1979-07-12 00:45:29.910 ,3,0,2.,12.0,0.,12.0,0.,12.0,0.,12.0
1979-07-12 00:45:41.910 ,2,0,4.,12.0,0.,12.0,0.,12.0,0.,12.0
1979-07-12 00:45:53.910 ,2,0,3.,12.0,0.,12.0,0.,12.0,0.,12.0
1979-07-12 00:46:05.910 ,2,0,1.,12.0,0.,12.0,0.,12.0,0.,12.0
1979-07-12 00:46:17.910 ,2,0,2.,12.0,0.,12.0,0.,12.0,0.,12.0
1979-07-12 00:46:29.910 ,1,0,1.,12.0,0.,12.0,0.,12.0,0.,12.0
1979-07-12 00:46:41.910 ,1,0,1.,12.0,0.,12.0,0.,12.0,0.,12.0
1979-07-12 00:46:53.910 ,1,0,3.,12.0,0.,12.0,0.,12.0,0.,12.0
1979-07-12 00:47:05.910 ,1,0,3.,12.0,0.,12.0,0.,12.0,0.,12.0
1979-07-12 00:47:17.910 ,0,0,1.,12.0,0.,12.0,0.,12.0,0.,12.0
1979-07-12 00:47:29.910 ,0,0,1.,12.0,0.,12.0,0.,12.0,0.,12.0
1979-07-12 00:47:41.910 ,0,0,3.,12.0,0.,12.0,0.,12.0,0.,12.0
1979-07-12 00:47:53.910 ,0,0,1.,12.0,0.,12.0,0.,12.0,0.,12.0
1979-07-12 00:48:05.910 ,0,0,2.,12.0,0.,12.0,0.,12.0,0.,12.0
1979-07-12 00:48:17.910 ,0,0,1.,12.0,0.,12.0,0.,12.0,0.,12.0
1979-07-12 00:48:29.910 ,0,0,1.,12.0,0.,12.0,0.,12.0,0.,12.0
1979-07-12 00:48:41.910 ,0,0,1.,12.0,0.,12.0,0.,12.0,0.,12.0
1979-07-12 00:48:53.910 ,1,0,0.,12.0,0.,12.0,0.,12.0,0.,12.0
1979-07-12 00:49:05.910 ,1,0,2.,12.0,0.,12.0,0.,12.0,0.,12.0
1979-07-12 00:49:17.910 ,1,0,0.,12.0,0.,12.0,0.,12.0,0.,12.0
1979-07-12 00:49:29.910 ,1,0,4.,12.0,0.,12.0,0.,12.0,0.,12.0
1979-07-12 00:49:41.910 ,2,0,1.,12.0,0.,12.0,0.,12.0,0.,12.0
1979-07-12 00:49:53.910 ,2,0,5.,12.0,0.,12.0,0.,12.0,0.,12.0
1979-07-12 00:50:05.910 ,2,0,4.,12.0,0.,12.0,0.,12.0,0.,12.0
1979-07-12 00:50:17.910 ,2,0,3.,12.0,0.,12.0,0.,12.0,0.,12.0
1979-07-12 00:50:29.910 ,3,0,2.,12.0,0.,12.0,0.,12.0,0.,12.0
1979-07-12 00:50:41.910 ,3,0,1.,12.0,0.,12.0,0.,12.0,0.,12.0
1979-07-12 00:50:53.910 ,3,0,1.,12.0,0.,12.0,0.,12.0,0.,12.0
1979-07-12 00:51:05.910 ,3,0,5.,12.0,0.,12.0,0.,12.0,0.,12.0
1979-07-12 00:51:17.910 ,4,0,1.,12.0,0.,12.0,0.,12.0,0.,12.0
1979-07-12 00:51:29.910 ,4,0,3.,12.0,0.,12.0,0.,12.0,0.,12.0
1979-07-12 00:51:41.910 ,4,0,3.,12.0,0.,12.0,0.,12.0,0.,12.0
1979-07-12 00:51:53.910 ,4,0,6.,12.0,0.,12.0,0.,12.0,0.,12.0
1979-07-12 00:52:05.910 ,5,0,3.,12.0,0.,12.0,0.,12.0,0.,12.0
1979-07-12 00:52:17.910 ,5,0,3.,12.0,0.,12.0,0.,12.0,0.,12.0
1979-07-12 00:52:29.910 ,5,0,2.,12.0,0.,12.0,0.,12.0,0.,12.0
1979-07-12 00:52:41.910 ,5,0,2.,12.0,0.,12.0,0.,12.0,0.,12.0
1979-07-12 00:52:53.910 ,6,0,2.,12.0,0.,12.0,0.,12.0,0.,12.0
1979-07-12 00:53:05.910 ,6,0,4.,12.0,0.,12.0,0.,12.0,0.,12.0
1979-07-12 00:53:17.910 ,6,0,2.,12.0,0.,12.0,0.,12.0,0.,12.0
1979-07-12 00:53:29.910 ,6,0,2.,12.0,0.,12.0,0.,12.0,0.,12.0
1979-07-12 00:53:41.910 ,7,0,1.,12.0,0.,12.0,0.,12.0,0.,12.0
1979-07-12 00:53:53.910 ,7,0,0.,12.0,0.,12.0,0.,12.0,0.,12.0
1979-07-12 00:54:05.910 ,7,0,0.,12.0,0.,12.0,0.,12.0,0.,12.0
1979-07-12 00:54:17.910 ,7,0,0.,12.0,0.,12.0,0.,12.0,0.,12.0
1979-07-12 00:54:29.910 ,7,0,0.,12.0,0.,12.0,0.,12.0,0.,12.0
1979-07-12 00:54:41.910 ,7,0,0.,12.0,0.,12.0,0.,12.0,0.,12.0
1979-07-12 00:54:53.910 ,7,0,0.,12.0,0.,12.0,0.,12.0,0.,12.0
1979-07-12 00:55:05.910 ,7,0,0.,12.0,0.,12.0,0.,12.0,0.,12.0
1979-07-12 00:55:17.910 ,6,0,0.,12.0,0.,12.0,0.,12.0,0.,12.0
1979-07-12 00:55:29.910 ,6,0,4.,12.0,0.,12.0,0.,12.0,0.,12.0
1979-07-12 00:55:41.910 ,6,0,2.,12.0,0.,12.0,0.,12.0,0.,12.0
1979-07-12 00:55:53.910 ,6,0,2.,12.0,0.,12.0,0.,12.0,0.,12.0
1979-07-12 00:56:05.910 ,5,0,0.,12.0,0.,12.0,0.,12.0,0.,12.0
1979-07-12 00:56:17.910 ,5,0,3.,12.0,0.,12.0,0.,12.0,0.,12.0
1979-07-12 00:56:29.910 ,5,0,2.,12.0,0.,12.0,0.,12.0,0.,12.0
1979-07-12 00:56:41.910 ,5,0,2.,12.0,0.,12.0,0.,12.0,0.,12.0
1979-07-12 00:56:53.910 ,4,0,4.,12.0,0.,12.0,0.,12.0,0.,12.0
1979-07-12 00:57:05.910 ,4,0,4.,12.0,0.,12.0,0.,12.0,0.,12.0
1979-07-12 00:57:17.910 ,4,0,1.,12.0,0.,12.0,0.,12.0,0.,12.0
1979-07-12 00:57:29.910 ,4,0,4.,12.0,0.,12.0,0.,12.0,0.,12.0
1979-07-12 00:57:41.910 ,3,0,7.,12.0,0.,12.0,0.,12.0,0.,12.0
1979-07-12 00:57:53.910 ,3,0,4.,12.0,0.,12.0,0.,12.0,0.,12.0
1979-07-12 00:58:05.910 ,3,0,3.,12.0,0.,12.0,0.,12.0,0.,12.0
1979-07-12 00:58:17.910 ,3,0,4.,12.0,0.,12.0,0.,12.0,0.,12.0
1979-07-12 00:58:29.910 ,2,0,0.,12.0,0.,12.0,0.,12.0,0.,12.0
1979-07-12 00:58:41.910 ,2,0,2.,12.0,0.,12.0,0.,12.0,0.,12.0
1979-07-12 00:58:53.910 ,2,0,2.,12.0,0.,12.0,0.,12.0,0.,12.0
1979-07-12 00:59:05.910 ,2,0,2.,12.0,0.,12.0,0.,12.0,0.,12.0
1979-07-12 00:59:17.910 ,1,0,5.,12.0,0.,12.0,0.,12.0,0.,12.0
1979-07-12 00:59:29.910 ,1,0,3.,12.0,0.,12.0,0.,12.0,0.,12.0
1979-07-12 00:59:41.910 ,1,0,0.,12.0,0.,12.0,0.,12.0,0.,12.0
1979-07-12 00:59:53.910 ,1,0,3.,12.0,0.,12.0,0.,12.0,0.,12.0
1979-07-12 01:00:05.910 ,0,0,2.,12.0,0.,12.0,0.,12.0,0.,12.0
1979-07-12 01:00:17.910 ,0,0,5.,12.0,0.,12.0,0.,12.0,0.,12.0
1979-07-12 01:00:29.910 ,0,0,1.,12.0,0.,12.0,0.,12.0,0.,12.0
1979-07-12 01:00:41.910 ,0,0,3.,12.0,0.,12.0,0.,12.0,0.,12.0
1979-07-12 01:00:53.910 ,0,0,2.,12.0,0.,12.0,0.,12.0,0.,12.0
1979-07-12 01:01:05.910 ,0,0,2.,12.0,0.,12.0,0.,12.0,0.,12.0
1979-07-12 01:01:17.910 ,0,0,0.,12.0,0.,12.0,0.,12.0,0.,12.0
1979-07-12 01:01:29.910 ,0,0,3.,12.0,0.,12.0,0.,12.0,0.,12.0
1979-07-12 01:01:41.910 ,1,0,1.,12.0,0.,12.0,0.,12.0,0.,12.0
1979-07-12 01:01:53.910 ,1,0,2.,12.0,0.,12.0,0.,12.0,0.,12.0
1979-07-12 01:02:05.910 ,1,0,2.,12.0,0.,12.0,0.,12.0,0.,12.0
1979-07-12 01:02:17.910 ,1,0,2.,12.0,0.,12.0,0.,12.0,0.,12.0
1979-07-12 01:02:29.910 ,2,0,4.,12.0,0.,12.0,0.,12.0,0.,12.0
1979-07-12 01:02:41.910 ,2,0,5.,12.0,0.,12.0,0.,12.0,0.,12.0
1979-07-12 01:02:53.910 ,2,0,6.,12.0,0.,12.0,0.,12.0,0.,12.0
1979-07-12 01:03:05.910 ,2,0,3.,12.0,0.,12.0,0.,12.0,0.,12.0
1979-07-12 01:03:17.910 ,3,0,2.,12.0,0.,12.0,0.,12.0,0.,12.0
1979-07-12 01:03:29.910 ,3,0,3.,12.0,0.,12.0,0.,12.0,0.,12.0
1979-07-12 01:03:41.910 ,3,0,6.,12.0,0.,12.0,0.,12.0,0.,12.0
1979-07-12 01:03:53.910 ,3,0,5.,12.0,0.,12.0,0.,12.0,0.,12.0
1979-07-12 01:04:05.910 ,4,0,5.,12.0,0.,12.0,0.,12.0,0.,12.0
1979-07-12 01:04:17.910 ,4,0,5.,12.0,0.,12.0,0.,12.0,0.,12.0
1979-07-12 01:04:29.910 ,4,0,4.,12.0,0.,12.0,0.,12.0,0.,12.0
1979-07-12 01:04:41.910 ,4,0,4.,12.0,0.,12.0,0.,12.0,0.,12.0
1979-07-12 01:04:53.910 ,5,0,3.,12.0,0.,12.0,0.,12.0,0.,12.0
1979-07-12 01:05:05.910 ,5,0,3.,12.0,0.,12.0,0.,12.0,0.,12.0
1979-07-12 01:05:17.910 ,5,0,4.,12.0,0.,12.0,0.,12.0,0.,12.0
1979-07-12 01:05:29.910 ,5,0,3.,12.0,0.,12.0,0.,12.0,0.,12.0
1979-07-12 01:05:41.910 ,6,0,2.,12.0,0.,12.0,0.,12.0,0.,12.0
1979-07-12 01:05:53.910 ,6,0,3.,12.0,0.,12.0,0.,12.0,0.,12.0
1979-07-12 01:06:05.910 ,6,0,2.,12.0,0.,12.0,0.,12.0,0.,12.0
1979-07-12 01:06:17.910 ,6,0,1.,12.0,0.,12.0,0.,12.0,0.,12.0
1979-07-12 01:07:17.910 ,0,0,4.,12.0,0.,12.0,0.,12.0,0.,12.0
1979-07-12 01:07:29.910 ,0,0,3.,12.0,0.,12.0,0.,12.0,0.,12.0
1979-07-12 01:07:41.910 ,0,1,5.,12.0,0.,12.0,0.,12.0,0.,12.0
1979-07-12 01:07:53.910 ,0,1,1.,12.0,0.,12.0,0.,12.0,0.,12.0
1979-07-12 01:08:05.910 ,4,1,1.,12.0,0.,12.0,0.,12.0,0.,12.0
1979-07-12 01:08:17.910 ,4,1,3.,12.0,0.,12.0,0.,12.0,0.,12.0
1979-07-12 01:08:29.910 ,7,1,7.,12.0,0.,12.0,0.,12.0,0.,12.0
1979-07-12 01:08:41.910 ,7,1,1.,12.0,0.,12.0,0.,12.0,0.,12.0
1979-07-12 01:08:53.910 ,3,1,0.,12.0,0.,12.0,0.,12.0,0.,12.0
1979-07-12 01:09:05.910 ,3,1,4.,12.0,0.,12.0,0.,12.0,0.,12.0
1979-07-12 01:09:17.910 ,0,1,2.,12.0,0.,12.0,0.,12.0,0.,12.0
1979-07-12 01:09:29.910 ,0,1,0.,12.0,0.,12.0,0.,12.0,0.,12.0
1979-07-12 01:09:41.910 ,4,1,2.,12.0,0.,12.0,0.,12.0,0.,12.0
1979-07-12 01:09:53.910 ,4,1,5.,12.0,0.,12.0,0.,12.0,0.,12.0
1979-07-12 01:10:05.910 ,7,1,4.,12.0,0.,12.0,0.,12.0,0.,12.0
1979-07-12 01:10:17.910 ,7,1,0.,12.0,0.,12.0,0.,12.0,0.,12.0
1979-07-12 01:10:29.910 ,3,1,0.,12.0,0.,12.0,0.,12.0,0.,12.0
1979-07-12 01:10:41.910 ,3,1,4.,12.0,0.,12.0,0.,12.0,0.,12.0
1979-07-12 01:10:53.910 ,0,1,5.,12.0,0.,12.0,0.,12.0,0.,12.0
1979-07-12 01:11:05.910 ,0,1,2.,12.0,0.,12.0,0.,12.0,0.,12.0
1979-07-12 01:11:17.910 ,4,1,3.,12.0,0.,12.0,0.,12.0,0.,12.0
1979-07-12 01:11:29.910 ,4,1,4.,12.0,0.,12.0,0.,12.0,0.,12.0
1979-07-12 01:11:41.910 ,7,1,6.,12.0,0.,12.0,0.,12.0,0.,12.0
1979-07-12 01:11:53.910 ,7,1,2.,12.0,0.,12.0,0.,12.0,0.,12.0
1979-07-12 01:12:05.910 ,3,1,2.,12.0,0.,12.0,0.,12.0,0.,12.0
1979-07-12 01:12:17.910 ,3,1,4.,12.0,0.,12.0,0.,12.0,0.,12.0
1979-07-12 01:12:29.910 ,0,1,7.,12.0,0.,12.0,0.,12.0,0.,12.0
1979-07-12 01:12:41.910 ,0,1,3.,12.0,0.,12.0,0.,12.0,0.,12.0
1979-07-12 01:12:53.910 ,4,1,1.,12.0,0.,12.0,0.,12.0,0.,12.0
1979-07-12 01:13:05.910 ,4,1,2.,12.0,0.,12.0,0.,12.0,0.,12.0
1979-07-12 01:13:17.910 ,7,1,3.,12.0,0.,12.0,0.,12.0,0.,12.0
1979-07-12 01:13:29.910 ,7,1,1.,12.0,0.,12.0,0.,12.0,0.,12.0
1979-07-12 01:13:41.910 ,3,1,1.,12.0,0.,12.0,0.,12.0,0.,12.0
1979-07-12 01:13:53.910 ,3,1,5.,12.0,0.,12.0,0.,12.0,0.,12.0
1979-07-12 01:14:05.910 ,0,1,7.,12.0,0.,12.0,0.,12.0,0.,12.0
1979-07-12 01:14:17.910 ,0,1,2.,12.0,0.,12.0,0.,12.0,0.,12.0
1979-07-12 01:14:29.910 ,4,1,5.,12.0,0.,12.0,0.,12.0,0.,12.0
1979-07-12 01:14:41.910 ,4,1,4.,12.0,0.,12.0,0.,12.0,0.,12.0
1979-07-12 01:14:53.910 ,7,1,6.,12.0,0.,12.0,0.,12.0,0.,12.0
1979-07-12 01:15:05.910 ,7,1,2.,12.0,0.,12.0,0.,12.0,0.,12.0
1979-07-12 01:15:17.910 ,3,1,1.,12.0,0.,12.0,0.,12.0,0.,12.0
1979-07-12 01:15:29.910 ,3,1,3.,12.0,0.,12.0,0.,12.0,0.,12.0
1979-07-12 01:15:41.910 ,0,1,6.,12.0,0.,12.0,0.,12.0,0.,12.0
1979-07-12 01:15:53.910 ,0,1,3.,12.0,0.,12.0,0.,12.0,0.,12.0
1979-07-12 01:16:05.910 ,4,1,2.,12.0,0.,12.0,0.,12.0,0.,12.0
1979-07-12 01:16:17.910 ,4,1,7.,12.0,0.,12.0,0.,12.0,0.,12.0
1979-07-12 01:16:29.910 ,7,1,2.,12.0,0.,12.0,0.,12.0,0.,12.0
1979-07-12 01:16:41.910 ,7,1,2.,12.0,0.,12.0,0.,12.0,0.,12.0
1979-07-12 01:16:53.910 ,3,1,5.,12.0,0.,12.0,0.,12.0,0.,12.0
1979-07-12 01:17:05.910 ,3,1,9.,12.0,0.,12.0,0.,12.0,0.,12.0
1979-07-12 01:17:17.910 ,0,1,5.,12.0,0.,12.0,0.,12.0,0.,12.0
1979-07-12 01:17:29.910 ,0,1,5.,12.0,1.,12.0,0.,12.0,0.,12.0
1979-07-12 01:17:41.910 ,0,0,5.,12.0,0.,12.0,0.,12.0,0.,12.0
1979-07-12 01:17:53.910 ,0,0,4.,12.0,0.,12.0,0.,12.0,0.,12.0
1979-07-12 01:18:05.910 ,0,0,5.,12.0,0.,12.0,0.,12.0,0.,12.0
1979-07-12 01:18:17.910 ,0,0,1.,12.0,0.,12.0,0.,12.0,0.,12.0
1979-07-12 01:18:29.910 ,5,0,3.,12.0,0.,12.0,0.,12.0,0.,12.0
1979-07-12 01:18:41.910 ,5,0,10.,12.0,0.,12.0,0.,12.0,0.,12.0
1979-07-12 01:18:53.910 ,5,0,1.,12.0,0.,12.0,0.,12.0,0.,12.0
1979-07-12 01:19:05.910 ,5,0,1.,12.0,0.,12.0,0.,12.0,0.,12.0
1979-07-12 01:19:17.910 ,4,0,9.,12.0,0.,12.0,0.,12.0,0.,12.0
1979-07-12 01:19:29.910 ,4,0,2.,12.0,0.,12.0,0.,12.0,0.,12.0
1979-07-12 01:19:41.910 ,4,0,2.,12.0,0.,12.0,0.,12.0,0.,12.0
1979-07-12 01:19:53.910 ,4,0,2.,12.0,0.,12.0,0.,12.0,0.,12.0
1979-07-12 01:20:05.910 ,3,0,1.,12.0,0.,12.0,0.,12.0,0.,12.0
1979-07-12 01:20:17.910 ,3,0,4.,12.0,0.,12.0,0.,12.0,0.,12.0
1979-07-12 01:20:29.910 ,3,0,2.,12.0,0.,12.0,0.,12.0,0.,12.0
1979-07-12 01:20:41.910 ,3,0,3.,12.0,0.,12.0,0.,12.0,0.,12.0
1979-07-12 01:20:53.910 ,2,0,3.,12.0,0.,12.0,0.,12.0,0.,12.0
1979-07-12 01:21:05.910 ,2,0,4.,12.0,0.,12.0,0.,12.0,0.,12.0
1979-07-12 01:21:17.910 ,2,0,3.,12.0,0.,12.0,0.,12.0,0.,12.0
1979-07-12 01:21:29.910 ,2,0,3.,12.0,0.,12.0,0.,12.0,0.,12.0
1979-07-12 01:21:41.910 ,1,0,3.,12.0,0.,12.0,0.,12.0,0.,12.0
1979-07-12 01:21:53.910 ,1,0,4.,12.0,0.,12.0,0.,12.0,0.,12.0
1979-07-12 01:22:05.910 ,1,0,4.,12.0,0.,12.0,0.,12.0,0.,12.0
1979-07-12 01:22:17.910 ,1,0,3.,12.0,0.,12.0,0.,12.0,0.,12.0
1979-07-12 01:22:29.910 ,0,0,4.,12.0,0.,12.0,0.,12.0,0.,12.0
1979-07-12 01:22:41.910 ,0,0,1.,12.0,0.,12.0,0.,12.0,0.,12.0
1979-07-12 01:22:53.910 ,0,0,3.,12.0,0.,12.0,0.,12.0,0.,12.0
1979-07-12 01:23:05.910 ,0,0,1.,12.0,0.,12.0,0.,12.0,0.,12.0
1979-07-12 01:23:17.910 ,0,0,1.,12.0,0.,12.0,0.,12.0,0.,12.0
1979-07-12 01:23:29.910 ,0,0,4.,12.0,0.,12.0,0.,12.0,0.,12.0
1979-07-12 01:23:41.910 ,0,0,5.,12.0,0.,12.0,0.,12.0,0.,12.0
1979-07-12 01:23:53.910 ,0,0,3.,12.0,0.,12.0,0.,12.0,0.,12.0
1979-07-12 01:24:05.910 ,1,0,1.,12.0,0.,12.0,0.,12.0,0.,12.0
1979-07-12 01:24:17.910 ,1,0,3.,12.0,0.,12.0,0.,12.0,1.,12.0
1979-07-12 01:24:29.910 ,1,0,3.,12.0,0.,12.0,0.,12.0,0.,12.0